Aérodrome :
LOGIN :

S'inscrire | Disclaimer

   EN    FR    IT 

 










Légende :    VFR   VFR Marginal   IFR   IFR Intensif   IFR Très Intensif
Visi : 
Plafond : 
>= 8 km
>= 3000ft
5 à 8 km
1000 à 3000 ft
1500m à 5 km
500 à 1000 ft
800 à 1500m
200 à 500 ft
< 800m
< 200 ft
Symboles :   Orages  Brouillard  Fortes neiges  Fortes précipitations  Vent > 20 kt
SIGMETs :   Divers  Orages  Givrage  Turbulence  Onde Orograph.  Cendres Volcan.







- Altitude de l'aérodrome : 364 ft
- Voir les cartes d'approche


LFAQ - Albert Bray

DERNIER METAR :
  • 132000Z AUTO 07010KT CAVOK M01/M02 Q1018

METARs EXPIRÉS :
  • 131930Z AUTO 06011KT CAVOK M00/M02 Q1017
  • 131900Z AUTO 06010KT CAVOK M00/M02 Q1017
  • 131830Z AUTO 05009KT CAVOK M01/M02 Q1017
  • 131800Z AUTO 06009KT CAVOK M00/M02 Q1017 NOSIG
  • 131730Z AUTO 06009KT CAVOK M00/M02 Q1017 NOSIG

TAF TAF LFAQ
Valide du 13 à 15h jusqu'au 14 à 00h UTC


131400Z 1315/1324 07012KT CAVOK
Pas de NOTAMs connus pour ce terrain.



MET'MAP, la Météo Aéronautique d'un coup d'oeil ! - Copyright ORBIFLY Décembre 2007 - Disclaimer

ORBIFLY MET'MAP TEAM :

Programmation & Développement : Alexandra Zaïnal
Conception & Développement : Baudouin d'Aumeries
Co-Programmation & Développement : Marc-Olivier Méhu
Soutien technique & logistique : Manuel Goepfert

Contact : metmap@orbifly.com




SOURCES & CREDITS :

   NOAA